Location: Unspecified
(0.0000°N, 0.0000°E)
Time: 18:17:24
(UTC+00:00)

THORAD DELTA 1 DEB - Pass Details

Date: 21 February 2026
Orbit: 1442 x 1568 km, 101.4° (Epoch: 22 February)

Event Time Altitude Azimuth Distance (km) Brightness Sun altitude
Exits shadow 21:33:46 37° 232° (SW) 2,264 ? -49.0°
Drops below altitude 10° 21:38:54 10° 211° (SSW) 3,744 ? -50.2°
Sets 21:41:51 0° 206° (SSW) 4,718 ? -50.9°
